Date,TemperatureHighF,TemperatureAvgF,TemperatureLowF,DewpointHighF,DewpointAvgF,DewpointLowF,HumidityHigh,HumidityAvg,HumidityLow,PressureMaxIn,PressureMinIn,WindSpeedMaxMPH,WindSpeedAvgMPH,GustSpeedMaxMPH,PrecipitationSumIn
2014-1-1,58.9,49.2,37.5,40.6,35.9,31.6,83,62,45,30.05,29.79,21,4,35,0.00
2014-1-2,60.4,54.6,46.4,45.1,42.4,39.8,83,64,50,29.90,29.74,18,2,32,0.00
2014-1-3,60.4,51.0,46.1,47.9,44.6,41.2,87,79,63,30.05,29.87,3,0,7,0.00
2014-1-4,63.9,53.5,44.5,48.6,43.0,35.9,89,70,40,29.95,29.56,24,7,43,0.17
2014-1-5,58.7,46.8,38.0,40.4,36.9,31.0,88,71,35,30.02,29.75,7,0,11,0.01
2014-1-6,58.9,48.1,40.5,46.2,40.4,35.5,86,75,55,30.05,29.94,6,0,12,0.00
2014-1-7,58.9,50.4,43.8,49.4,44.9,40.3,90,82,64,30.17,30.04,3,0,7,0.00
2014-1-8,59.0,51.8,46.8,49.8,46.6,43.6,92,83,64,30.25,30.15,6,1,12,0.00
2014-1-9,52.9,47.8,43.2,45.8,43.9,40.8,92,87,76,30.18,30.09,2,0,6,0.00
2014-1-10,53.5,49.2,46.2,44.3,42.9,41.6,89,79,68,30.12,30.03,5,0,12,0.00
2014-1-11,56.6,51.6,47.0,48.7,45.4,42.5,86,80,65,30.15,30.03,4,0,10,0.00
2014-1-12,58.9,51.3,43.5,49.4,45.9,39.3,89,82,65,30.18,30.11,2,0,6,0.00
2014-1-13,54.1,48.3,41.8,47.0,43.6,39.1,90,84,72,30.11,29.85,3,0,7,0.09
2014-1-14,57.2,44.7,36.3,45.8,37.3,31.6,93,77,38,29.93,29.75,3,0,7,0.01
2014-1-15,55.3,44.8,34.7,42.2,37.8,31.2,89,77,58,29.99,29.74,17,1,29,0.02
2014-1-16,63.1,56.7,50.4,46.2,42.5,37.1,68,59,48,29.74,29.64,18,6,29,0.00
2014-1-17,58.6,51.1,42.6,37.7,33.7,26.0,74,53,29,29.65,29.56,18,6,30,0.00
2014-1-18,56.2,49.3,40.2,49.5,42.7,34.9,91,78,57,29.59,29.34,13,2,22,0.48
2014-1-19,50.8,46.3,40.3,46.9,42.9,37.6,92,88,74,29.54,29.32,5,0,10,0.15
2014-1-20,53.9,43.7,36.5,41.8,37.2,32.8,91,79,52,29.87,29.53,5,0,10,0.02
2014-1-21,55.3,41.8,33.1,39.1,33.1,26.8,90,74,35,29.93,29.84,5,0,11,0.01
2014-1-22,50.5,42.9,33.4,42.4,37.4,29.4,90,81,67,29.97,29.81,5,0,10,0.11
2014-1-23,55.7,45.7,39.8,44.2,39.0,36.4,92,79,52,30.15,29.97,7,1,11,0.02
2014-1-24,56.6,47.0,39.6,42.6,39.4,36.3,89,76,50,30.10,29.85,9,1,17,0.00
2014-1-25,57.5,48.9,41.9,50.0,43.9,39.1,90,83,66,30.08,29.90,6,0,13,0.03
2014-1-26,58.9,48.8,39.9,47.9,41.5,35.2,86,76,54,30.09,29.75,7,0,13,0.00
2014-1-27,55.4,47.5,40.2,44.5,40.2,35.1,88,77,48,29.76,29.60,10,1,17,0.00
2014-1-28,51.3,43.8,34.1,38.1,32.9,27.1,89,67,43,29.66,29.33,17,3,26,0.01
2014-1-29,54.1,44.5,33.8,42.5,35.7,28.3,83,72,45,29.53,29.34,8,1,14,0.00
2014-1-30,54.1,45.4,36.0,39.7,36.4,31.6,85,71,47,29.70,29.49,8,1,18,0.01
2014-1-31,55.0,43.4,33.4,40.0,35.2,29.9,88,74,53,29.87,29.68,7,1,17,0.00
2014-2-1,52.6,43.1,34.1,42.5,38.0,30.8,89,83,62,29.82,29.68,4,0,9,0.24
2014-2-2,54.7,43.2,34.9,40.6,35.8,30.6,91,77,46,29.98,29.78,6,1,11,0.13
2014-2-3,56.3,44.5,31.0,37.3,29.4,21.3,89,60,27,29.94,29.66,22,5,32,0.01
2014-2-4,54.5,47.1,36.0,37.1,32.5,27.2,79,58,39,29.93,29.69,15,5,29,0.00
2014-2-5,60.4,48.4,38.5,45.7,38.1,33.2,83,68,47,29.96,29.60,16,2,32,0.00
2014-2-6,66.1,50.3,34.9,46.1,38.8,30.9,87,67,38,29.96,29.65,21,7,32,0.00
2014-2-7,57.5,50.0,38.8,46.9,42.0,35.8,89,74,54,29.96,29.63,15,3,24,0.10
2014-2-8,62.6,53.2,38.6,40.9,37.1,32.6,91,55,40,29.86,29.52,23,8,42,0.00
2014-2-9,54.7,46.2,36.8,39.9,33.1,26.3,87,62,34,29.88,29.39,16,2,25,0.08
2014-2-10,60.1,49.9,42.8,44.7,40.9,36.9,90,73,46,29.79,29.16,18,1,31,0.10
2014-2-11,55.3,45.1,35.5,40.7,33.0,23.4,90,66,29,29.91,29.65,14,2,25,0.02
2014-2-12,60.1,47.4,34.1,41.7,32.0,25.9,83,58,29,30.02,29.82,12,2,20,0.00
2014-2-13,71.3,52.9,36.0,45.5,38.2,30.0,85,61,27,29.94,29.72,15,1,28,0.00
2014-2-14,72.0,59.8,50.1,49.9,45.5,42.3,83,62,36,29.94,29.64,15,4,24,0.00
2014-2-15,70.4,61.3,47.9,48.9,41.1,36.1,83,51,29,29.92,29.61,18,7,35,0.00
2014-2-16,54.1,47.9,44.2,45.5,42.0,38.9,88,80,58,30.00,29.90,7,1,15,0.17
2014-2-17,58.6,46.7,36.0,42.2,37.9,33.4,91,73,46,29.98,29.88,12,3,22,0.08
2014-2-18,55.0,49.8,41.9,45.4,40.2,33.7,81,70,47,29.94,29.84,9,2,20,0.01
2014-2-19,61.0,51.4,44.1,42.7,40.5,37.5,82,67,44,30.09,29.87,7,1,14,0.00
2014-2-20,62.1,50.0,39.1,43.7,39.4,35.3,87,69,38,30.07,29.91,5,0,11,0.00
2014-2-21,53.3,47.1,40.5,42.8,39.4,33.5,85,75,47,30.09,29.88,8,1,14,0.00
2014-2-22,59.5,46.3,35.6,42.2,37.0,32.1,88,72,46,30.21,30.08,5,1,12,0.00
2014-2-23,61.3,49.1,37.6,41.4,38.0,33.8,86,67,45,30.20,30.00,11,2,19,0.02
2014-2-24,58.4,50.9,44.8,43.4,38.5,33.1,78,63,46,30.04,29.97,16,6,27,0.00
2014-2-25,62.9,50.8,37.9,42.3,36.8,31.9,87,62,33,30.02,29.86,17,3,31,0.00
2014-2-26,55.4,45.2,36.8,41.5,36.9,33.6,89,74,49,30.28,29.96,11,1,24,0.12
2014-2-27,53.9,43.2,33.8,41.6,35.5,30.9,91,76,42,30.28,30.13,8,1,23,0.03
2014-2-28,58.3,44.7,35.2,43.3,35.9,30.3,88,73,45,30.16,29.66,19,2,33,0.01
2014-3-1,55.3,43.5,31.3,36.8,30.3,23.5,82,62,33,29.74,29.52,7,1,13,0.01
2014-3-2,60.5,47.4,34.1,44.4,37.3,29.7,85,70,35,29.63,29.49,7,1,13,0.00
2014-3-3,53.5,47.0,42.8,42.2,38.9,32.0,89,74,53,29.52,29.41,15,2,29,0.00
2014-3-4,60.7,50.0,39.8,36.0,27.8,16.2,71,46,18,29.77,29.50,21,5,39,0.00
2014-3-5,64.2,49.1,39.1,42.4,31.6,7.7,87,58,11,30.11,29.76,14,2,22,0.00
2014-3-6,60.5,48.3,37.0,37.2,29.2,22.0,71,51,24,30.21,30.08,19,3,36,0.00
2014-3-7,63.9,50.2,37.0,43.2,35.3,29.5,79,59,32,30.24,30.17,7,1,12,0.00
2014-3-8,66.9,51.8,39.5,42.3,37.6,31.9,83,62,32,30.34,30.20,11,2,19,0.00
2014-3-9,63.2,51.2,40.2,39.7,35.2,27.6,77,57,27,30.35,30.24,6,1,13,0.00
2014-3-10,69.1,52.6,38.5,37.9,32.0,27.2,76,50,23,30.23,30.00,11,1,19,0.00
2014-3-11,62.7,51.9,41.2,41.4,37.3,32.2,80,59,33,30.26,30.09,4,0,12,0.00
2014-3-12,58.9,50.9,42.8,43.2,37.5,34.4,74,61,42,30.36,30.26,10,2,18,0.00
2014-3-13,62.1,52.1,43.3,43.2,39.8,35.9,81,64,44,30.36,30.26,5,1,12,0.00
2014-3-14,66.6,52.6,41.6,44.2,38.9,35.4,83,62,35,30.29,30.19,11,1,18,0.00
2014-3-15,73.9,57.7,40.3,41.6,36.6,30.6,81,51,21,30.23,30.03,13,1,25,0.00
2014-3-16,78.8,69.5,49.6,37.9,32.4,25.6,59,27,15,30.15,29.99,21,6,35,0.00
2014-3-17,77.6,61.0,46.2,43.9,37.2,26.6,73,45,16,30.13,30.05,7,1,14,0.00
2014-3-18,72.0,58.2,48.2,51.0,44.4,39.7,79,62,34,30.19,30.03,9,1,15,0.00
2014-3-19,70.4,55.6,44.8,49.1,44.3,39.5,85,68,33,30.22,30.09,10,1,18,0.00
2014-3-20,59.8,53.4,45.8,49.2,45.4,40.2,86,75,57,30.15,30.09,9,1,15,0.00
2014-3-21,65.0,56.3,51.7,51.2,48.6,46.1,88,76,52,30.11,29.92,7,1,14,0.00
2014-3-22,63.4,53.1,43.6,50.7,45.8,38.3,87,77,58,29.91,29.77,14,2,24,0.14
2014-3-23,55.1,47.6,39.1,41.6,37.8,30.1,90,70,46,30.02,29.82,12,1,22,0.06
2014-3-24,57.8,48.0,35.0,39.4,34.0,28.8,79,60,38,30.02,29.87,7,1,15,0.00
2014-3-25,59.9,48.9,42.1,44.6,40.0,36.6,88,73,47,29.89,29.66,11,1,19,0.01
2014-3-26,56.9,46.3,38.0,38.5,35.4,32.2,90,68,40,29.80,29.65,16,4,27,0.00
2014-3-27,55.3,46.3,36.5,43.6,37.8,31.7,88,73,47,29.88,29.76,6,1,12,0.00
2014-3-28,59.5,48.7,35.9,44.2,39.9,33.0,90,73,49,30.00,29.87,16,3,28,0.01
2014-3-29,60.9,53.1,46.2,48.6,44.4,40.2,82,73,54,30.00,29.90,13,2,23,0.00
2014-3-30,56.0,54.2,53.2,52.1,50.3,48.0,90,87,79,29.98,29.90,3,0,10,0.00
2014-3-31,63.7,56.6,50.5,53.1,50.8,47.1,91,82,62,29.98,29.90,11,2,19,0.00
2014-4-1,69.3,56.0,47.9,52.5,47.3,44.0,93,75,42,29.94,29.80,18,4,30,0.01
2014-4-2,60.4,54.3,45.5,52.7,48.2,40.3,88,80,71,29.86,29.60,5,0,11,0.00
2014-4-3,57.5,54.4,49.1,55.3,51.9,46.6,93,91,88,29.60,29.46,10,2,20,0.00
2014-4-4,68.6,59.8,48.3,47.4,43.1,38.9,90,56,35,29.85,29.53,17,4,37,0.01
2014-4-5,73.5,58.0,44.6,48.7,43.2,35.5,87,62,27,30.04,29.85,10,1,16,0.00
2014-4-6,75.3,61.3,46.5,50.6,45.7,41.6,84,60,34,30.08,30.00,11,1,15,0.00
2014-4-7,76.5,62.1,49.1,53.1,49.2,44.6,85,65,40,30.07,29.97,8,2,20,0.00
2014-4-8,69.6,59.2,53.3,56.0,51.5,48.4,92,77,55,30.22,30.08,8,0,13,0.00
2014-4-9,74.2,61.8,52.9,53.2,48.9,45.4,82,65,36,30.22,30.06,8,1,14,0.00
2014-4-10,72.5,61.1,51.7,50.7,46.1,37.3,85,61,34,30.09,29.99,8,1,14,0.00
2014-4-11,70.9,58.6,51.9,56.2,51.2,46.6,90,78,47,29.98,29.90,4,0,11,0.00
2014-4-12,66.9,58.7,51.6,55.5,52.3,48.3,92,80,62,30.04,29.94,7,1,14,0.00
2014-4-13,76.3,62.9,50.4,54.2,49.6,42.9,90,65,32,30.08,30.00,9,1,15,0.00
2014-4-14,74.4,63.3,52.3,53.0,49.9,47.2,83,64,42,30.10,29.96,10,2,19,0.00
2014-4-15,77.2,64.2,52.9,51.8,46.9,35.4,84,56,31,30.06,29.90,6,1,14,0.00
2014-4-16,68.8,58.0,46.8,46.6,40.6,33.2,78,54,31,30.16,30.04,7,2,15,0.00
2014-4-17,70.4,58.5,45.2,53.4,46.9,40.0,84,67,44,30.16,29.96,9,2,16,0.00
2014-4-18,73.9,61.6,48.6,52.2,48.8,44.9,88,65,39,29.96,29.72,7,1,14,0.00
2014-4-19,64.5,57.6,50.4,48.5,45.5,42.4,82,65,47,29.73,29.66,10,1,15,0.00
2014-4-20,56.5,53.7,50.7,49.5,47.4,42.6,88,80,62,29.69,29.60,2,0,11,0.09
2014-4-21,61.8,55.7,51.0,53.0,50.1,47.9,90,82,68,29.73,29.60,6,1,11,0.02
2014-4-22,65.8,57.5,53.5,54.2,51.6,48.1,90,81,57,30.05,29.71,7,0,14,0.08
2014-4-23,72.5,61.4,48.3,53.1,50.5,45.5,91,70,42,30.09,29.99,8,1,16,0.01
2014-4-24,73.3,63.3,52.8,53.2,48.8,45.6,85,62,38,30.09,29.79,20,5,32,0.00
2014-4-25,68.4,58.0,49.8,50.7,46.7,40.3,83,67,36,29.99,29.79,13,2,21,0.02
2014-4-26,70.9,58.8,44.3,50.0,45.0,33.5,88,63,28,29.98,29.77,12,2,21,0.23
2014-4-27,66.9,56.0,46.1,49.9,44.7,38.1,92,69,37,29.94,29.83,9,1,19,0.61
2014-4-28,65.8,54.9,45.8,50.3,45.5,40.9,87,72,45,29.97,29.86,8,1,14,0.00
2014-4-29,67.4,57.3,45.7,53.6,48.4,42.1,88,74,51,29.97,29.90,5,1,12,0.02
2014-4-30,66.9,59.5,53.3,53.2,51.1,47.9,91,75,55,29.96,29.88,10,1,15,0.03
2014-5-1,69.6,60.5,51.3,53.8,50.4,47.4,88,71,47,29.97,29.93,9,1,16,0.38
2014-5-2,67.1,59.6,52.2,53.5,48.9,39.7,90,70,39,29.96,29.87,14,2,25,0.01
2014-5-3,72.7,61.1,47.4,49.2,41.6,35.8,85,53,27,29.96,29.82,12,2,23,0.00
2014-5-4,73.5,59.9,46.1,49.3,40.0,23.7,80,53,16,29.99,29.89,9,1,16,0.00
2014-5-5,72.0,60.9,46.8,50.3,44.8,40.1,80,58,32,29.99,29.90,20,6,34,0.00
2014-5-6,73.0,62.6,48.5,53.1,47.3,41.9,82,60,34,30.05,29.93,15,4,30,0.00
2014-5-7,71.6,64.4,57.6,55.8,53.4,51.3,85,69,53,30.11,30.02,9,1,15,0.00
2014-5-8,77.0,65.5,55.9,55.3,51.4,48.0,85,62,41,30.12,30.05,11,2,19,0.00
2014-5-9,79.2,66.9,56.0,55.5,52.4,49.5,83,62,38,30.13,30.06,9,2,16,0.00
2014-5-10,79.8,68.0,54.5,59.7,54.8,49.4,84,64,43,30.11,29.97,5,0,10,0.00
2014-5-11,67.8,62.0,58.1,57.3,52.8,47.7,85,72,61,30.08,29.97,9,0,16,0.00
2014-5-12,68.3,58.8,52.8,50.7,47.0,42.6,80,66,48,30.08,30.00,10,2,20,0.00
2014-5-13,62.6,54.0,49.1,50.0,47.1,45.2,90,78,55,30.28,30.02,13,1,23,0.23
2014-5-14,70.3,59.1,45.4,45.6,39.9,33.3,86,54,27,30.31,30.22,12,2,21,0.00
2014-5-15,75.6,63.4,49.6,42.2,29.8,9.7,67,35,8,30.30,30.06,16,4,31,0.00
2014-5-16,71.5,61.2,49.4,48.4,40.0,31.3,76,47,24,30.14,29.97,12,3,23,0.00
2014-5-17,72.7,61.1,50.4,48.2,44.8,39.7,78,58,32,30.00,29.92,12,2,19,0.00
2014-5-18,68.6,59.7,52.2,51.0,46.7,41.6,79,64,39,29.96,29.81,9,2,19,0.00
2014-5-19,72.0,62.9,52.8,54.7,51.0,47.5,83,67,47,29.85,29.69,12,4,23,0.00
2014-5-20,68.3,62.5,57.3,57.7,54.1,48.3,90,75,50,29.92,29.84,10,2,20,0.03
2014-5-21,68.1,62.6,58.1,63.3,58.9,54.6,92,88,73,29.89,29.72,6,1,13,0.20
2014-5-22,74.2,63.5,54.1,56.5,48.5,32.3,89,63,24,29.88,29.74,16,3,26,0.00
2014-5-23,75.6,62.6,48.6,45.8,41.0,35.0,81,49,23,30.01,29.77,21,6,34,0.00
2014-5-24,70.4,58.9,45.7,49.5,43.8,40.5,83,59,36,30.05,30.00,8,1,16,0.00
2014-5-25,68.9,60.0,51.9,53.5,47.8,44.1,79,65,43,30.03,29.96,16,3,28,0.00
2014-5-26,62.1,54.4,49.1,53.7,49.9,45.9,91,85,70,30.10,29.99,7,0,13,0.51
2014-5-27,68.1,56.3,46.1,54.9,49.6,43.6,92,80,50,30.09,29.99,7,0,15,0.48
2014-5-28,70.6,58.6,51.1,57.4,51.9,48.0,90,80,48,29.99,29.85,9,1,17,0.99
2014-5-29,69.4,58.9,54.7,56.3,53.3,48.1,91,82,48,30.03,29.89,8,0,15,0.14
2014-5-30,71.3,60.3,53.2,56.7,51.7,44.7,90,75,39,30.03,29.99,10,1,23,0.14
2014-5-31,77.0,63.4,49.4,53.2,46.3,38.7,89,59,28,30.05,29.96,12,2,23,0.00
2014-6-1,77.2,67.2,54.7,51.1,44.9,37.0,80,49,24,30.05,29.96,16,4,30,0.00
2014-6-2,73.2,64.8,52.3,52.9,48.0,43.7,79,56,35,30.04,30.00,10,1,16,0.00
2014-6-3,78.5,67.2,55.1,52.7,47.5,43.0,79,52,29,30.03,29.90,13,2,23,0.00
2014-6-4,74.0,64.2,55.1,53.1,51.0,48.7,80,63,44,29.98,29.81,10,2,19,0.02
2014-6-5,77.0,67.1,57.3,54.6,50.6,47.0,81,58,38,29.98,29.86,13,3,24,0.00
2014-6-6,77.6,66.0,56.5,60.7,56.3,52.2,87,72,51,30.01,29.93,7,1,14,0.00
2014-6-7,84.1,70.6,58.4,60.8,56.5,50.4,91,65,32,30.02,29.96,8,1,15,0.00
2014-6-8,89.5,74.3,59.2,65.3,55.2,45.6,87,56,27,30.04,29.99,15,2,26,0.00
2014-6-9,91.2,76.4,62.3,57.2,50.4,42.5,71,44,21,30.03,29.94,12,2,20,0.00
2014-6-10,88.2,75.3,61.3,59.7,52.9,46.9,70,48,25,30.07,29.98,8,2,15,0.00
2014-6-11,90.3,76.6,62.6,59.3,55.1,48.1,74,50,24,30.14,30.07,10,1,19,0.00
2014-6-12,92.1,78.5,64.8,59.5,55.8,48.9,75,49,24,30.13,30.05,11,1,20,0.00
2014-6-13,92.1,77.0,65.2,63.9,55.7,50.8,71,50,25,30.04,29.93,14,1,26,0.49
2014-6-14,87.0,72.7,64.0,65.1,57.6,50.8,84,62,31,29.94,29.82,8,1,16,0.06
2014-6-15,79.2,69.0,58.1,59.3,50.6,40.1,86,56,26,29.92,29.83,16,4,28,0.00
2014-6-16,82.6,70.4,61.8,56.1,49.8,39.8,75,51,24,29.94,29.89,14,2,24,0.00
2014-6-17,78.3,66.0,60.1,58.0,52.9,45.2,84,65,32,29.97,29.89,14,3,22,0.44
2014-6-18,74.6,65.0,55.9,57.2,53.6,49.1,86,68,44,30.07,29.95,13,2,20,0.24
2014-6-19,80.5,69.4,54.2,60.2,53.7,48.2,87,60,34,30.06,29.98,11,2,20,0.00
2014-6-20,85.7,74.3,59.9,59.8,55.2,49.8,85,55,30,30.00,29.87,9,2,16,0.00
2014-6-21,86.3,75.2,63.2,60.2,53.2,46.1,81,50,29,29.94,29.86,13,2,22,0.00
2014-6-22,83.0,72.5,61.6,66.4,60.2,50.9,82,66,48,30.03,29.92,7,1,14,0.00
2014-6-23,83.2,73.4,66.0,64.9,62.9,60.8,86,71,51,30.04,29.95,9,2,17,0.00
2014-6-24,83.6,73.7,63.7,61.0,57.7,52.7,84,60,35,29.94,29.79,12,2,19,0.00
2014-6-25,77.4,70.1,62.6,61.3,58.1,55.4,79,66,50,29.86,29.76,10,1,17,0.00
2014-6-26,81.4,68.9,60.7,61.1,56.1,50.0,83,66,35,30.02,29.85,10,1,17,0.21
2014-6-27,80.9,71.0,58.0,63.7,59.1,53.2,85,67,52,30.04,29.95,18,5,33,0.00
2014-6-28,89.5,76.4,62.6,63.4,54.8,42.8,80,51,21,29.96,29.79,21,7,33,0.00
2014-6-29,73.5,66.5,58.6,58.3,53.6,47.3,84,65,40,30.07,29.84,8,1,16,0.06
2014-6-30,76.1,67.5,56.0,58.7,55.1,50.0,86,66,47,30.08,29.97,15,2,24,0.00
2014-7-1,81.8,71.1,60.2,63.2,59.2,55.3,85,68,45,29.97,29.84,20,4,32,0.00
2014-7-2,76.1,70.0,62.6,64.0,59.7,55.4,83,71,54,30.15,29.92,10,2,16,0.02
2014-7-3,79.9,70.7,59.0,57.4,53.6,48.2,85,57,33,30.16,29.93,11,2,17,0.00
2014-7-4,85.1,74.6,69.1,63.8,58.1,51.9,70,57,33,29.99,29.80,14,2,23,0.00
2014-7-5,86.7,76.4,64.2,63.2,58.7,54.7,82,56,37,29.99,29.86,12,2,19,0.00
2014-7-6,86.1,75.6,63.9,63.9,58.6,52.5,79,57,39,29.93,29.77,21,6,37,0.00
2014-7-7,68.4,63.5,57.0,59.7,57.6,53.2,88,81,68,30.04,29.88,4,0,11,0.64
2014-7-8,74.7,66.6,58.1,59.0,56.0,52.5,89,70,50,30.04,30.00,8,1,15,0.00
2014-7-9,71.6,64.7,57.2,58.7,55.5,47.9,86,73,45,30.02,29.96,9,1,18,0.04
2014-7-10,80.3,68.3,54.1,57.8,52.4,46.7,89,60,34,30.02,29.92,11,1,19,0.01
2014-7-11,81.4,71.4,62.6,58.9,53.8,46.3,78,56,31,29.99,29.90,13,2,21,0.00
2014-7-12,77.6,69.1,62.6,57.7,55.2,50.0,79,63,39,30.02,29.94,15,3,25,0.00
2014-7-13,78.1,70.1,62.3,63.9,58.5,54.2,87,68,46,30.02,29.93,9,1,19,0.10
2014-7-14,80.3,71.4,63.9,63.9,62.0,58.7,90,73,51,30.07,29.96,12,2,20,0.00
2014-7-15,81.2,73.6,67.1,64.5,62.7,60.4,84,70,51,30.09,30.04,9,2,17,0.00
2014-7-16,88.0,76.7,65.5,65.1,60.8,54.9,87,61,33,30.08,30.04,12,2,19,0.00
2014-7-17,92.9,79.7,65.5,62.4,59.1,51.9,83,53,25,30.07,29.97,15,3,26,0.00
2014-7-18,91.4,78.7,67.9,63.1,58.4,50.5,79,53,27,30.02,29.89,17,3,29,0.00
2014-7-19,87.0,77.8,68.4,68.2,63.9,54.9,73,63,50,29.90,29.75,7,1,16,0.00
2014-7-20,85.3,72.3,60.9,67.0,61.8,54.2,89,72,35,29.98,29.75,13,1,20,1.08
2014-7-21,81.8,70.6,58.6,60.1,56.5,49.6,89,64,35,30.04,29.98,10,2,18,0.01
2014-7-22,89.5,75.6,61.8,59.8,54.9,48.6,86,53,25,30.02,29.86,13,1,23,0.00
2014-7-23,87.2,77.1,63.5,62.5,55.0,46.8,74,49,27,29.92,29.80,10,2,18,0.00
2014-7-24,89.5,78.5,65.8,60.7,58.1,54.9,77,52,32,29.87,29.81,12,2,21,0.00
2014-7-25,84.0,74.1,67.8,65.2,62.3,57.0,83,67,51,29.94,29.82,15,2,27,0.13
2014-7-26,89.7,75.4,61.3,64.4,59.6,52.6,87,61,31,29.98,29.89,10,1,17,0.00
2014-7-27,88.2,78.9,70.9,66.0,61.7,56.6,79,58,35,29.99,29.94,9,2,16,0.00
2014-7-28,80.3,71.5,64.0,66.5,63.3,59.3,88,77,51,29.98,29.87,8,1,20,0.93
2014-7-29,75.4,68.1,60.2,61.1,58.1,53.0,91,72,47,29.93,29.83,12,2,20,0.35
2014-7-30,84.9,73.8,59.5,59.2,55.0,49.1,87,56,32,29.93,29.85,9,1,17,0.00
2014-7-31,87.0,76.4,64.8,63.9,58.2,50.9,77,56,34,29.93,29.84,9,2,17,0.00
2014-8-1,85.1,73.2,64.5,68.5,62.7,59.5,84,71,45,29.89,29.73,10,1,19,0.12
2014-8-2,78.8,69.5,63.2,65.6,62.0,57.5,89,78,57,29.85,29.72,11,1,25,0.42
2014-8-3,80.3,71.1,59.6,66.4,61.5,56.0,89,73,51,29.93,29.82,10,1,17,0.00
2014-8-4,84.7,74.3,65.8,66.4,63.7,61.6,89,71,46,30.03,29.93,9,1,17,0.00
2014-8-5,82.4,74.3,66.4,64.0,61.7,57.8,85,66,45,30.05,30.00,7,1,13,0.00
2014-8-6,86.7,75.9,66.6,67.3,62.0,57.3,85,65,40,30.05,29.94,9,1,15,0.03
2014-8-7,85.5,74.8,68.3,71.8,66.5,62.7,91,77,49,29.99,29.95,8,1,16,0.87
2014-8-8,85.9,76.9,69.1,71.3,67.0,62.6,93,73,54,29.97,29.79,16,4,29,0.00
2014-8-9,84.3,76.0,66.8,67.3,62.7,58.1,85,65,42,29.96,29.85,11,2,18,0.00
2014-8-10,89.0,77.4,67.1,72.1,67.8,62.8,87,74,45,29.92,29.78,97,2,97,0.00
2014-8-11,87.6,76.7,67.6,69.8,63.1,56.9,88,65,44,30.00,29.90,9,1,17,0.00
2014-8-12,81.6,73.2,66.8,62.5,59.2,55.0,78,62,47,29.98,29.80,9,1,17,0.00
2014-8-13,74.2,68.5,60.7,62.9,56.4,48.9,88,67,43,29.98,29.69,97,10,97,0.24
2014-8-14,79.9,68.4,59.3,60.3,55.9,48.6,89,67,34,30.07,29.98,97,20,97,0.06
2014-8-15,75.3,68.6,62.1,60.3,56.4,52.4,84,66,45,30.12,30.04,8,1,15,0.01
2014-8-16,75.3,68.9,62.4,58.6,53.0,46.5,80,59,37,30.15,30.09,7,1,14,0.00
2014-8-17,81.6,70.9,62.3,60.8,57.6,51.5,82,64,39,30.13,29.94,12,1,19,0.00
2014-8-18,85.1,73.1,60.9,66.2,62.2,56.7,87,70,49,29.94,29.77,16,2,25,0.00
2014-8-19,81.4,72.2,65.8,64.1,60.8,57.7,83,69,47,29.98,29.82,97,3,97,0.00
2014-8-20,73.9,68.6,64.8,62.9,59.2,54.9,85,72,59,30.04,29.95,6,0,13,0.04
2014-8-21,76.0,67.1,62.0,62.2,58.2,53.9,93,74,54,30.04,29.96,97,9,97,0.23
2014-8-22,68.1,64.2,62.1,62.3,59.4,56.3,91,85,78,30.04,29.96,3,0,9,1.24
2014-8-23,73.5,65.9,59.3,60.6,57.4,51.0,94,76,46,30.11,29.98,3,0,9,0.01
2014-8-24,75.8,68.7,62.3,61.7,59.9,56.4,88,74,61,30.11,30.01,6,1,14,0.00
2014-8-25,79.9,71.5,62.1,68.3,63.9,59.1,90,78,62,30.04,29.88,7,1,12,0.00
2014-8-26,84.0,75.4,64.3,65.9,62.9,59.4,89,67,47,29.93,29.80,7,1,13,0.00
2014-8-27,84.9,75.3,67.9,65.5,63.3,61.4,84,68,47,29.98,29.91,11,2,21,0.00
2014-8-28,85.9,75.3,65.2,66.8,64.1,61.6,89,70,49,30.00,29.94,9,1,18,0.00
2014-8-29,82.2,73.5,68.4,67.0,63.7,61.0,87,73,51,30.07,29.94,6,0,12,0.07
2014-8-30,84.0,72.1,65.8,65.1,62.2,57.0,89,74,43,30.06,29.97,4,0,13,0.09
2014-8-31,83.0,73.1,65.5,64.6,62.4,59.3,90,71,47,30.03,29.95,6,1,12,0.00
2014-9-1,87.6,74.2,63.9,65.8,61.3,55.2,87,67,35,29.99,29.88,9,1,16,0.00
2014-9-2,87.8,74.6,62.9,64.8,58.6,41.9,90,63,23,29.93,29.83,6,1,14,0.00
2014-9-3,79.8,72.0,63.9,58.8,54.5,49.8,74,55,41,29.91,29.84,10,1,15,0.00
2014-9-4,73.9,69.7,64.8,63.8,59.7,54.8,85,71,61,29.95,29.89,2,0,11,0.00
2014-9-5,82.2,71.2,64.5,66.8,62.9,58.2,89,77,51,29.96,29.87,6,0,14,0.05
2014-9-6,84.5,72.6,62.6,69.7,63.8,59.7,91,76,51,29.90,29.81,7,1,13,0.01
2014-9-7,86.5,74.4,62.7,69.4,63.9,58.3,87,72,43,29.89,29.81,11,2,20,0.00
2014-9-8,85.9,74.9,66.1,68.0,64.2,60.2,89,71,48,30.02,29.85,11,2,21,0.00
2014-9-9,84.3,70.6,62.0,65.0,59.8,56.0,85,71,39,30.01,29.96,8,1,16,0.15
2014-9-10,86.1,71.8,59.6,63.2,59.0,55.1,87,66,40,29.96,29.82,10,1,18,0.00
2014-9-11,85.7,74.7,65.2,62.6,61.0,57.4,86,64,44,29.89,29.79,7,1,13,0.00
2014-9-12,82.4,72.4,64.2,61.7,59.6,56.8,83,66,44,29.99,29.85,10,1,15,0.00
2014-9-13,83.0,72.4,63.5,63.0,59.0,53.5,79,64,44,30.00,29.93,11,1,19,0.00
2014-9-14,79.2,70.3,61.3,64.9,60.7,55.1,89,73,53,29.96,29.88,5,0,12,0.20
2014-9-15,79.9,68.3,62.6,64.5,60.5,55.9,90,77,51,29.93,29.85,16,1,29,0.21
2014-9-16,79.6,70.8,60.4,67.9,62.9,56.5,88,77,59,29.92,29.80,10,2,19,0.13
2014-9-17,78.1,70.5,63.9,65.2,62.2,58.9,89,76,55,29.83,29.72,11,2,20,0.00
2014-9-18,81.8,72.3,63.1,68.1,63.2,59.8,90,74,51,29.84,29.74,12,2,21,0.00
2014-9-19,84.0,73.2,63.5,66.5,63.0,59.2,88,72,47,29.92,29.79,17,5,29,0.00
2014-9-20,87.4,72.8,63.1,67.3,61.7,52.6,87,71,33,30.00,29.90,10,1,17,0.00
2014-9-21,82.8,71.9,63.2,63.0,59.3,54.1,86,67,38,30.05,29.99,6,0,14,0.00
2014-9-22,74.4,68.9,63.4,61.1,59.2,56.7,83,72,59,30.01,29.85,4,0,11,0.00
2014-9-23,77.0,67.8,62.1,60.8,53.7,45.7,84,62,34,29.94,29.84,6,1,14,0.00
2014-9-24,71.8,64.1,58.1,58.7,54.0,48.6,84,71,46,30.04,29.92,7,0,14,0.07
2014-9-25,75.6,64.2,55.6,57.5,50.4,34.3,87,65,25,30.17,30.02,10,1,19,0.00
2014-9-26,77.4,65.0,55.9,52.7,49.1,42.7,84,60,30,30.22,30.15,8,1,15,0.00
2014-9-27,77.6,65.5,52.3,58.1,51.7,44.6,84,64,35,30.24,30.16,13,2,23,0.00
2014-9-28,68.4,64.0,59.0,63.4,59.7,54.2,93,86,69,30.22,30.14,3,0,10,2.26
2014-9-29,79.0,67.5,61.8,68.9,63.2,60.1,95,87,58,30.22,30.11,10,0,18,1.19
2014-9-30,70.8,65.6,61.5,63.8,61.0,58.3,93,85,70,30.25,30.18,7,1,12,0.06
2014-10-1,79.4,67.3,59.3,62.9,59.4,56.7,92,77,48,30.26,30.19,5,0,11,0.01
2014-10-2,79.4,67.5,57.2,60.6,55.2,46.0,91,68,33,30.23,30.17,4,0,12,0.02
2014-10-3,77.4,66.9,58.4,58.3,55.8,50.9,87,70,42,30.19,30.07,7,1,13,0.00
2014-10-4,76.8,66.8,57.6,62.7,58.7,54.1,89,76,54,30.07,29.96,7,1,16,0.03
2014-10-5,70.4,64.2,59.6,60.5,56.6,53.4,91,77,56,30.03,29.95,11,2,19,0.20
2014-10-6,76.8,66.8,58.0,63.0,58.9,54.5,90,77,50,29.96,29.77,15,4,26,0.00
2014-10-7,80.9,68.3,58.7,63.8,57.4,52.9,86,69,44,29.86,29.75,11,1,17,0.00
2014-10-8,83.0,69.7,58.7,62.0,56.1,47.5,87,64,29,29.84,29.77,14,4,23,0.00
2014-10-9,83.0,69.6,58.0,65.1,58.9,52.4,87,70,37,29.87,29.78,15,3,24,0.00
2014-10-10,79.4,68.7,61.6,64.3,61.9,58.6,91,80,55,29.90,29.80,12,2,19,0.00
2014-10-11,78.3,68.1,60.7,60.8,57.3,51.3,85,70,43,29.95,29.85,11,2,18,0.00
2014-10-12,80.3,69.6,62.1,63.9,57.5,49.4,90,68,35,29.86,29.70,15,4,27,0.03
2014-10-13,76.7,66.3,58.3,56.8,52.6,42.0,87,64,29,29.77,29.69,14,3,27,0.00
2014-10-14,71.5,61.6,54.8,56.8,52.4,49.7,84,73,48,29.80,29.70,14,1,22,0.00
2014-10-15,74.2,62.7,53.2,55.3,51.3,47.5,85,68,40,29.83,29.74,12,1,18,0.00
2014-10-16,79.6,67.2,54.8,61.3,54.6,49.9,85,66,45,29.89,29.81,12,2,20,0.00
2014-10-17,79.8,68.9,60.1,60.3,57.5,53.5,87,69,44,30.02,29.84,12,2,19,0.00
2014-10-18,80.3,66.0,56.9,63.8,57.2,51.8,88,75,45,30.16,30.01,8,0,14,0.00
2014-10-19,79.4,66.5,58.3,62.0,58.6,55.1,91,77,51,30.24,30.15,5,0,11,0.02
2014-10-20,77.9,66.5,58.4,63.0,59.7,55.2,91,80,56,30.20,30.05,4,0,9,0.00
2014-10-21,79.6,66.5,55.3,59.2,56.1,51.4,90,72,38,30.09,30.03,10,0,15,0.01
2014-10-22,69.9,60.0,49.1,56.5,42.9,35.2,87,56,29,30.24,30.07,5,0,12,0.00
2014-10-23,74.2,58.9,47.6,51.4,45.6,40.6,81,64,35,30.21,29.96,6,0,12,0.00
2014-10-24,79.9,64.1,49.5,53.0,47.3,39.9,83,59,27,30.03,29.94,6,1,11,0.00
2014-10-25,81.2,65.2,54.1,55.1,51.1,45.7,81,63,31,30.14,30.00,3,0,9,0.00
2014-10-26,74.7,62.4,54.5,55.4,52.2,49.6,85,71,44,30.20,30.12,5,0,11,0.00
2014-10-27,66.3,61.2,54.8,55.8,53.3,49.7,85,76,61,30.20,30.10,4,0,9,0.00
2014-10-28,67.9,61.9,58.7,56.9,55.3,53.6,89,79,61,30.09,30.00,6,0,13,0.02
2014-10-29,69.1,61.6,52.9,56.8,54.4,49.7,89,78,60,30.13,30.00,4,0,9,0.00
2014-10-30,69.1,59.9,53.8,56.7,53.8,50.4,90,81,62,30.22,30.11,3,0,7,0.02
2014-10-31,70.6,59.6,49.9,56.3,52.8,47.1,91,79,55,30.26,30.19,6,0,12,0.01
2014-11-1,69.8,60.4,52.5,56.8,53.4,48.3,90,78,58,30.22,30.17,3,0,7,0.00
2014-11-2,72.8,60.1,48.5,58.0,51.9,45.4,90,76,46,30.18,29.96,13,3,23,0.01
2014-11-3,67.3,61.9,53.1,57.0,53.7,48.8,88,75,58,29.96,29.50,18,8,33,0.09
2014-11-4,66.0,56.8,48.2,55.1,47.9,40.8,88,74,40,29.49,29.30,19,2,33,0.19
2014-11-5,61.0,50.5,43.2,48.2,43.5,39.3,90,78,48,29.80,29.49,5,0,11,0.01
2014-11-6,61.3,49.2,39.1,44.5,39.3,35.3,91,71,39,29.90,29.80,4,0,9,0.00
2014-11-7,65.3,52.3,38.6,47.5,41.6,34.5,88,70,35,29.97,29.81,3,0,9,0.01
2014-11-8,66.8,56.0,46.2,51.2,45.1,38.6,87,69,36,29.96,29.68,14,4,24,0.00
2014-11-9,62.6,53.7,44.1,47.9,42.8,39.3,85,68,46,29.84,29.66,4,0,9,0.01
2014-11-10,62.4,53.7,46.8,49.9,46.5,43.0,89,77,52,29.88,29.75,8,1,16,0.00
2014-11-11,61.6,54.0,47.0,48.4,42.3,34.7,87,66,44,29.75,29.50,16,4,29,0.01
2014-11-12,64.0,53.0,43.1,46.0,42.9,39.7,89,71,44,29.87,29.50,8,1,17,0.01
2014-11-13,66.0,52.3,41.3,45.6,42.0,37.3,88,70,40,29.87,29.76,2,0,7,0.00
2014-11-14,66.4,56.9,46.0,56.8,50.1,41.4,87,79,65,29.75,29.61,12,2,24,0.00
2014-11-15,65.2,56.7,49.6,49.1,43.7,36.3,88,64,40,29.71,29.60,13,1,22,0.01
2014-11-16,63.5,54.7,43.1,43.1,37.7,35.2,76,54,37,29.77,29.67,14,2,24,0.00
2014-11-17,61.3,52.2,43.8,45.8,41.3,37.6,85,67,48,29.81,29.64,7,1,14,0.00
2014-11-18,61.8,50.1,39.9,43.7,40.0,36.1,87,70,42,29.90,29.79,5,0,10,0.02
2014-11-19,64.7,52.0,40.3,48.8,42.8,35.8,86,72,49,30.12,29.89,3,0,7,0.00
2014-11-20,65.6,53.1,42.5,51.7,46.4,39.0,89,79,58,30.17,30.10,7,1,15,0.01
2014-11-21,66.9,57.7,49.1,55.3,51.1,45.4,88,79,64,30.13,30.02,14,2,22,0.00
2014-11-22,67.4,60.0,52.8,59.0,54.9,49.3,90,84,71,30.08,29.99,1,0,6,0.00
2014-11-23,67.4,61.5,57.2,60.3,56.7,53.5,90,84,74,30.11,30.03,6,0,11,0.00
2014-11-24,66.4,61.2,58.4,59.6,56.5,53.5,91,85,72,30.08,30.01,4,0,12,0.17
2014-11-25,63.9,59.9,56.9,57.7,56.3,54.6,92,88,78,30.04,29.92,1,0,5,0.01
2014-11-26,62.6,56.7,48.0,56.8,53.3,46.0,93,88,77,29.92,29.75,2,0,6,0.05
2014-11-27,62.0,53.7,45.8,53.9,49.2,43.9,94,85,66,29.75,29.49,10,1,17,0.09
2014-11-28,66.4,59.9,53.8,58.5,54.5,51.4,94,83,61,29.52,29.35,13,2,23,0.15
2014-11-29,62.7,60.3,57.5,60.3,57.6,54.4,94,91,86,29.55,29.47,13,4,26,3.38
2014-11-30,61.5,57.4,52.3,60.1,55.5,50.6,95,93,84,29.55,29.43,15,3,30,4.03
2014-12-1,56.2,52.2,44.3,52.8,46.5,41.0,92,81,64,29.58,29.43,11,1,19,0.29
2014-12-2,45.2,44.8,44.1,42.4,42.0,41.4,90,90,89,29.63,29.58,0,0,0,0.00
2014-12-8,43.3,43.0,42.8,39.4,38.8,37.2,86,85,79,30.09,30.08,0,0,0,0.00
2014-12-9,52.8,47.9,42.9,36.8,14.7,-5.2,77,29,9,30.26,30.08,0,0,0,0.02
2014-12-10,53.9,43.3,32.7,32.5,24.0,-5.1,75,51,9,30.33,30.19,0,0,0,0.00
2014-12-11,59.6,47.1,36.8,45.7,38.7,31.3,88,74,50,30.29,30.16,0,0,0,0.00
2014-12-12,58.3,45.2,38.0,44.2,38.9,35.5,91,80,46,30.17,29.90,0,0,0,0.02
2014-12-13,59.8,49.4,40.1,48.4,40.4,35.1,86,72,44,29.92,29.85,0,0,0,0.00
2014-12-14,59.2,49.5,42.3,50.0,43.5,37.2,89,80,66,30.01,29.91,0,0,0,0.36
2014-12-15,51.4,49.7,48.2,48.7,47.4,45.5,94,92,89,30.05,29.91,0,0,1,0.95
2014-12-16,55.3,48.0,41.2,47.7,44.0,37.5,94,86,73,29.97,29.86,0,0,0,0.01
2014-12-17,49.5,44.9,38.6,47.0,42.5,36.4,92,91,90,30.12,29.96,2,0,9,0.06
2014-12-18,65.5,52.9,44.8,51.8,47.1,42.6,92,81,56,30.28,30.08,3,0,10,0.00
2014-12-19,62.3,52.0,44.1,51.9,46.4,41.7,92,82,66,30.38,30.25,0,0,6,0.01
2014-12-20,63.5,50.8,42.9,50.3,45.0,40.2,91,81,51,30.42,30.34,0,0,0,0.01
2014-12-21,61.2,47.4,38.8,48.0,42.0,36.5,92,83,57,30.48,30.38,1,0,21,0.02
2014-12-22,57.2,44.6,36.8,44.3,38.8,34.1,91,81,54,30.49,30.37,1,0,18,0.01
2014-12-23,57.2,44.3,35.5,43.6,38.5,33.1,92,81,54,30.40,30.32,0,0,0,0.01
2014-12-24,56.7,45.8,38.9,44.3,39.2,34.5,89,79,54,30.38,30.31,3,0,7,0.00
2014-12-25,59.8,44.4,34.7,44.5,37.4,31.7,90,78,49,30.38,30.30,2,0,5,0.01
2014-12-26,53.2,43.0,35.2,38.9,35.0,31.6,89,75,45,30.42,30.24,5,0,10,0.00
2014-12-27,47.0,41.3,35.8,40.8,37.1,32.1,89,85,78,30.27,29.70,3,0,33,0.02
2014-12-28,50.2,41.7,32.8,38.6,29.7,23.2,89,64,36,30.05,29.68,11,2,29,0.01
2014-12-29,49.2,44.6,31.2,24.3,5.8,-5.7,74,23,10,30.40,30.06,16,1,31,0.00
2014-12-30,53.8,46.8,33.8,25.1,15.2,7.6,67,31,18,30.45,30.35,23,7,44,0.00
2014-12-31,55.9,40.8,28.8,32.9,26.0,20.6,79,59,26,30.46,30.23,0,0,0,0.00
2015-1-1,51.6,38.5,29.3,30.9,27.3,21.3,81,66,35,30.57,30.47,0,0,0,0.00
2015-1-2,63.9,44.5,31.9,39.9,32.7,27.2,84,66,32,30.60,30.50,0,0,0,0.00